Notices

What's New in latest Release from April 7th, 2021:

- Updated Glossary, including Speed of Maximum Gust, and Total Hourly Precipitation

- Updated national and regional climate services offices contacts and prices information

- Addition of station inventory lists for 1981-2010, 1971-2000, and 1961-1990 Normals.

If you haven't already, please take our survey and provide feedback about our website: https://eccc.sondage-survey.ca/f/LanguageSelection.aspx?s=442ca660-fcf1-47c0-95a9-59707d6fd709

Hourly Data Report for November 22, 2019

SAINT JOHN A
NEW BRUNSWICK
Current Station Operator: NAVCAN

45°18'58.000" N
65°53'24.000" W
108.80 m
8104901
71609
YSJ

Download Data

Hourly Data (November 2019)
Hourly Data Report for November 22, 2019
TIME
LST
Temp Definition
°C
Dew Point Definition
°C
Rel Hum Definition
%
Precip. Amount Definition
mm

Wind Dir Definition
10's deg

Wind Spd Definition
km/h
Visibility Definition
km
Stn Press Definition
kPa
Hmdx Definition


Wind Chill Definition


Weather Definition


00:00 -2.0 -3.5 90   35 5 24.1 100.14   -4 LegendNANA
01:00 -3.5 -4.3 94   36 2 24.1 100.07   -4 LegendNANA
02:00 -4.8 -5.5 95   36 3 24.1 100.06   -6 Clear
03:00 -3.6 -4.0 97   36 2 24.1 100.07   -4 LegendNANA
04:00 -4.1 -4.6 97   19 9 24.1 100.02   -8 LegendNANA
05:00 -2.8 -3.1 98   36 1 24.1 99.95   -3 Mostly Cloudy
06:00 -2.6 -3.0 97   9 6 24.1 99.82   -5 LegendNANA
07:00 -1.8 -2.3 96   36 1 24.1 99.77   -2 LegendNANA
08:00 -1.1 -1.6 96   28 4 24.1 99.72   -2 Cloudy
09:00 1.1 0.6 97   17 11 24.1 99.63     LegendNANA
10:00 3.1 1.9 92   16 17 24.1 99.47     Rain
11:00 4.0 2.6 91   16 20 24.1 99.32     Cloudy
12:00 4.5 3.1 90   17 23 24.1 99.16     LegendNANA
13:00 5.5 4.2 91   18 25 24.1 98.99     LegendNANA
14:00 6.1 4.7 91   18 27 9.7 98.81     Drizzle,Fog
15:00 6.4 5.9 96   17 36 6.4 98.63     Rain,Fog
16:00 7.0 6.6 97   18 34 4.8 98.53     Rain,Fog
17:00 7.9 7.7 98   19 28 4.8 98.36     Rain,Fog
18:00 9.0 8.6 97   23 24 4.8 98.22     Rain,Fog
19:00 8.4 7.9 97   27 14 8.1 98.10     Rain,Fog
20:00 7.0 6.4 96   28 17 8.1 98.06     Moderate Rain
21:00 4.6 3.5 93   30 27 12.9 98.11     Rain
22:00 2.8 2.0 95   29 20 9.7 98.08     Rain,Fog
23:00 1.9 1.3 96   29 17 6.4 98.04     Rain,Fog

Notes on Data Quality.

Legend

  • E = Estimated
  • M = Missing
  • NA = Not Available*
  • [empty] = Indicates an unobserved value
Date modified: